Starlink 32878

operational
NORAD ID: 62892 Int'l Des: 2025-024 Owner: SPXS Country: US Constellation: starlink
LEOCIRCULAR

关于 Starlink 32878

正在加载描述...

实时位置

正在加载3D地球...

即将过境

高度历史

Altitude vs Time

uPlot chart will show altitude changes over time

两行轨道根数

1 62892U 25024P 25351.23217213 .00019367 00000-0 71084-3 0 9996
2 62892 43.0029 71.1730 0003283 287.2948 72.7545 15.27606520 49650
Epoch: Dec 17, 2025 • Age: 10 hours

当前状态

高度 492.4 km
速度 7.62 km/s
星下点 -37.44°S, 23.77°W
发射日期 Feb 4, 2025
运行时间 0.8 years
类型 internet

技术详情

分类 Payload
质量 730.00 kg
干质量 700.00 kg
总质量 730.00 kg
长度 0.30 m
直径 4.10 m
跨度 29.00 m
形状 Box + pan
制造商 SPXS
平台类型 Starlink V2M
阶段状态 In Orbit
所有者/国家 SPXS/US

大型星座

Loading constellations...